Terug naar catalogus

STARLINK-36586

ActiefCommunicatieSSO
NORAD 67548·PAYLOAD·🇺🇸 United States

Gelanceerd Jan 22, 2026 vanaf Vandenberg Space Force Base

Loading…

Volgende Passages (komende 24 uur)

TLE

VersSource: CelesTrak SupGP

Epoch: Sep 15, 2026, 02:46 UTC

1 67548C 26014S   26258.11576389  .00083028  00000+0  25767-2 0  2583
2 67548  97.2847 143.6209 0001713  96.1677  30.7637 15.33404946    18

Volg STARLINK-36586 in realtime met AllMySat

Download on the App Store